Tracking 20942 objects as of 13-Jul-2020
HD Live streaming from Space Station
objects crossing your sky now

AL FARABI 2

Track AL FARABI 2 now!
10-day predictions


NORAD ID: 43805
Int'l Code: 2018-099AZ
Perigee: 575.9 km
Apogee: 599.2 km
Inclination: 97.7 °
Period: 96.3 minutes
Semi major axis: 6958 km
RCS: Unknown
Launch date: December 3, 2018
Source: (TBD)
Launch site: AIR FORCE WESTERN TEST RANGE (AFWTR)
aabbcc
Your satellite tracking list
Your tracking list is empty




NASA's NSSDC Master Catalog

Two Line Element Set (TLE):
1 43805U 18099AZ  20194.85139333 -.00000145 +00000-0 -78582-5 0  9995
2 43805 097.7028 266.1173 0016724 105.3153 254.9918 14.95631258087747
Source of the keplerian elements: AFSPC